Tracking 19181 objects as of 17-Jun-2018
HD Live streaming from Space Station
objects crossing your sky now

FENGYUN 1C DEB

Track FENGYUN 1C DEB now!
10-day predictions


NORAD ID: 31750
Int'l Code: 1999-025CEZ
Perigee: 663.7 km
Apogee: 819.6 km
Inclination: 98.8 °
Period: 99.5 minutes
Semi major axis: 7112 km
RCS: 0.0094 m2 (small)
Launch date: May 10, 1999
Source: People's Republic of China (PRC)
Launch site: Taiyaun Space Center, China (TSC)

Note: This is SATELLITE DEBRIS
aabbcc
Your satellite tracking list
Your tracking list is empty




NASA's NSSDC Master Catalog

Two Line Element Set (TLE):
1 31750U 99025CEZ 18167.16061823  .00001110  00000-0  29471-3 0  9990
2 31750  98.7586 303.2805 0109626 189.4006 170.5135 14.47295539581368
Source of the keplerian elements: AFSPC